[[{"header":{"parameterUnit":"m.s-1","parameterCategory":1,"la1":30.2991,"la2":30.254,"lo1":-89.0895,"lo2":-89.0444,"dy":0.0017,"dx":0.0017,"nx":28,"ny":28,"refTime":"2024-02-23T03:00:00:Z","depth":0,"parameterNumber":2,"parameterNumberName":"U-component_of_WINDS"},"data":[0,0,0,0,0,0,0,0,0,0,0,0,0,0,0,0,0,0,0,0,0,0,0,0,0,0,0,0,0,0,0,0,0,0,0,0,0,0,0,0,0,0,0,0,0,0,0,0,0,0,0,0,0,0,0,0,0,0,4.4751,4.4751,0,4.4771,4.4771,4.4772,4.4779,4.4778,4.4778,4.4778,4.4798,4.4799,4.4799,0,0,0,0,0,0,0,0,0,0,0,0,0,4.4718,4.4718,4.4751,4.4751,4.4751,4.4771,4.4771,4.4772,4.4779,4.4778,4.4778,4.4778,4.4798,4.4799,4.4799,0,0,0,0,0,0,0,0,0,0,0,0,0,4.4734,4.4718,4.4751,4.4757,4.4758,4.4771,4.4771,4.4772,4.4779,4.4778,4.4778,4.4778,4.4798,4.4799,4.4799,4.4808,0,0,4.4802,4.4803,0,0,0,0,0,0,0,0,4.4733,4.4736,4.4756,4.4757,4.4757,4.4772,4.4767,4.4784,4.4779,4.4771,4.4778,4.4778,4.479,4.4791,4.4795,4.4808,4.4809,4.4802,4.4803,4.4803,4.4804,0,0,0,0,0,0,0,4.4732,4.4735,4.4759,4.4756,4.4757,4.4759,4.4761,4.477,4.478,4.4771,4.4772,4.4774,4.479,4.4794,4.4796,4.481,4.4802,4.4803,4.4804,4.4804,4.4832,4.4833,0,0,0,0,0,0,4.473,4.4734,4.4758,4.4759,4.4745,4.476,4.4762,4.4768,4.478,4.4782,4.4774,4.4775,4.4793,4.4795,4.4796,4.4808,4.4803,4.4804,4.4805,4.4832,4.4832,4.4833,0,0,0,0,0,0,4.4729,4.4732,4.4757,4.4747,4.475,4.476,4.4766,4.4768,4.4772,4.4783,4.4785,4.4777,4.4793,4.4795,4.4805,4.4808,4.4805,4.4805,4.4832,4.4832,4.4832,4.4829,0,0,0,0,0,0,4.4728,4.4732,4.4735,4.4747,4.4751,4.4765,4.4767,4.4769,4.4774,4.4774,4.4786,4.4787,4.4793,4.4804,4.4806,4.4809,4.4806,4.4832,4.4832,4.4832,4.4829,4.4829,4.483,0,0,0,0,0,4.4727,4.4732,4.4735,4.4738,4.4754,4.4766,4.4768,4.4774,4.4774,4.4777,4.4785,4.4787,4.4808,4.4805,4.4807,4.4811,4.4831,4.4832,4.4832,4.4829,4.4829,4.483,0,0,0,0,0,0,4.4719,4.4734,4.4737,4.4746,4.4755,4.4767,4.4771,4.4774,4.4783,4.4783,4.479,4.4793,4.4803,4.4808,4.4804,4.482,4.482,4.4821,4.4816,4.4817,4.4817,4.4815,4.4807,0,0,0,0,0,4.4719,4.4727,4.4739,4.4746,4.4751,4.476,4.4765,4.477,4.4779,4.4782,4.479,4.4798,4.4807,4.4812,4.4821,4.483,4.4833,4.4834,4.4835,4.4835,4.4835,4.4842,4.4843,4.4834,4.4834,4.4834,0,0,4.4718,4.4727,4.4731,4.4745,4.4752,4.476,4.4763,4.4771,4.4777,4.4783,4.4793,4.48,4.481,4.482,4.4825,4.4825,4.4839,4.4835,4.4836,4.4836,4.4843,4.4843,4.4844,4.4834,4.4834,4.4834,0,0,4.472,4.4727,4.4734,4.4742,4.4753,4.476,4.4762,4.4774,4.4778,4.4789,4.4794,4.4802,4.4816,4.4824,4.4829,4.4837,4.484,4.4839,4.484,4.4847,4.4848,4.4848,4.4851,4.4852,4.484,4.484,4.484,0,4.4716,4.4729,4.4737,4.4746,4.4752,4.476,4.4767,4.4774,4.4787,4.4792,4.4792,4.4811,4.4818,4.4831,4.4833,4.4837,4.484,4.4838,4.4847,4.4848,4.4848,4.4851,4.4852,4.484,4.484,4.484,4.484,0,4.4725,4.4734,4.4739,4.4752,4.4759,4.4767,4.4777,4.4783,4.4788,4.4795,4.4807,4.4816,4.4827,4.4831,4.4835,4.4844,4.4844,4.4845,4.4845,4.4849,4.4852,4.4853,4.484,4.484,4.484,4.484,0,0,4.4721,4.4741,4.4742,4.4749,4.4763,4.477,4.4779,4.4791,4.4796,4.4806,4.4814,4.4827,4.4829,4.4836,4.4841,4.4847,4.4853,4.4848,4.4848,4.4849,4.4865,4.4864,4.4865,4.4856,4.4856,4.4856,4.4864,0,4.4725,4.4741,4.475,4.4763,4.4772,4.478,4.4788,4.4797,4.4805,4.4813,4.4821,4.4831,4.4832,4.4837,4.4843,4.4851,4.4857,4.4851,4.4863,4.4864,4.486,4.4866,4.4864,4.4872,4.4866,4.4866,4.4866,0,4.4731,4.4741,4.4755,4.477,4.4774,4.4781,4.4793,4.4801,4.4813,4.4818,4.4827,4.4832,4.4843,4.4842,4.4857,4.4853,4.4859,4.4864,4.4865,4.4865,4.4864,4.4867,4.4874,4.4875,4.4868,4.4868,4.4868,0,4.4727,4.4745,4.4756,4.4761,4.4778,4.4783,4.4791,4.4802,4.4809,4.482,4.4825,4.4837,4.4843,4.4852,4.4861,4.486,4.4876,4.4876,4.488,4.488,4.4882,4.4882,4.489,4.4887,4.4887,4.4887,4.4886,0,4.473,4.4738,4.4754,4.4761,4.4771,4.4781,4.4791,4.4799,4.481,4.4818,4.4826,4.4834,4.4846,4.4856,4.4863,4.4874,4.4877,4.4882,4.4883,4.4881,4.488,4.4884,4.4884,4.4887,4.4887,4.4887,4.4887,0,4.4726,4.4737,4.475,4.4766,4.477,4.4777,4.4791,4.4798,4.4806,4.4817,4.4821,4.4834,4.4846,4.4856,4.4872,4.4877,4.4889,4.4891,4.4885,4.4886,4.4889,4.4889,4.49,4.4902,4.4898,4.4898,4.4898,0,4.4727,4.4734,4.4751,4.4758,4.4766,4.4776,4.4784,4.4795,4.4803,4.4818,4.4823,4.4836,4.4847,4.4866,4.4877,4.4889,4.4891,4.4895,4.4893,4.4891,4.4892,4.4891,4.4892,4.4894,4.4894,4.4894,4.4894,0,4.4728,4.4734,4.4745,4.4758,4.4767,4.4778,4.4789,4.4794,4.4807,4.4816,4.4829,4.4837,4.4854,4.4867,4.4881,4.4888,4.4894,4.4895,4.4897,4.4893,4.489,4.4892,4.4885,4.4894,4.4894,4.4894,4.4894,4.4894,4.4727,4.4734,4.4748,4.476,4.477,4.478,4.4788,4.4798,4.4809,4.4824,4.483,4.4843,4.4857,4.4876,4.4884,4.4895,4.4896,4.4898,4.4899,4.4899,4.4899,4.4889,4.4898,4.4898,4.4898,4.4898,4.4898,0,4.4728,4.4738,4.4749,4.4765,4.4775,4.478,4.4793,4.4801,4.4813,4.4825,4.4836,4.4851,4.4864,4.4877,4.4891,4.4897,4.49,4.49,4.4899,4.4901,4.4897,4.4894,4.4898,4.4898,4.4898,4.4898,4.4898,4.4898,4.473,4.4742,4.475,4.4767,4.4777,4.479,4.4798,4.4808,4.4817,4.4834,4.4846,4.4854,4.4867,4.4882,4.4894,4.4898,4.4902,4.4902,4.4906,4.4902,4.4901,4.4901,4.4899,4.4903,4.4903,4.491,4.491,4.491]},{"header":{"parameterUnit":"m.s-1","parameterCategory":1,"la1":30.2991,"la2":30.254,"lo1":-89.0895,"lo2":-89.0444,"dy":0.0017,"dx":0.0017,"nx":28,"ny":28,"refTime":"2024-02-23T03:00:00:Z","depth":0,"parameterNumber":3,"parameterNumberName":"V-component_of_WINDS"},"data":[0,0,0,0,0,0,0,0,0,0,0,0,0,0,0,0,0,0,0,0,0,0,0,0,0,0,0,0,0,0,0,0,0,0,0,0,0,0,0,0,0,0,0,0,0,0,0,0,0,0,0,0,0,0,0,0,0,0,-2.6749,-2.6748,0,-2.668,-2.6679,-2.6679,-2.6737,-2.674,-2.6742,-2.6744,-2.6665,-2.6661,-2.6657,0,0,0,0,0,0,0,0,0,0,0,0,0,-2.6923,-2.692,-2.6749,-2.6748,-2.6747,-2.668,-2.6679,-2.6678,-2.6737,-2.674,-2.6743,-2.6746,-2.6667,-2.6662,-2.6656,0,0,0,0,0,0,0,0,0,0,0,0,0,-2.685,-2.6918,-2.6749,-2.6769,-2.677,-2.6681,-2.6679,-2.6678,-2.6736,-2.674,-2.6744,-2.6747,-2.6668,-2.6662,-2.6656,-2.6541,0,0,-2.6635,-2.6632,0,0,0,0,0,0,0,0,-2.6854,-2.6843,-2.6767,-2.6767,-2.6768,-2.6721,-2.6712,-2.6632,-2.6735,-2.6749,-2.6745,-2.6749,-2.668,-2.6673,-2.6652,-2.6537,-2.6534,-2.6635,-2.6631,-2.6628,-2.6626,0,0,0,0,0,0,0,-2.6859,-2.6847,-2.6722,-2.6765,-2.6766,-2.6778,-2.6772,-2.6697,-2.6694,-2.6748,-2.6752,-2.6743,-2.6681,-2.6658,-2.665,-2.6533,-2.6635,-2.6629,-2.6625,-2.6622,-2.6319,-2.6315,0,0,0,0,0,0,-2.6863,-2.6851,-2.6724,-2.672,-2.6821,-2.6772,-2.6765,-2.6732,-2.6695,-2.6693,-2.674,-2.6746,-2.6667,-2.6658,-2.6648,-2.651,-2.6628,-2.6622,-2.6618,-2.6323,-2.6318,-2.6314,0,0,0,0,0,0,-2.6867,-2.6851,-2.6727,-2.6786,-2.6771,-2.6765,-2.6728,-2.6729,-2.6706,-2.669,-2.6689,-2.6717,-2.667,-2.6657,-2.6567,-2.6508,-2.6619,-2.6613,-2.6328,-2.6322,-2.6316,-2.6233,0,0,0,0,0,0,-2.6871,-2.6852,-2.681,-2.6785,-2.6768,-2.6649,-2.6725,-2.6725,-2.6695,-2.6703,-2.6668,-2.6666,-2.6672,-2.6577,-2.6561,-2.6501,-2.6608,-2.6333,-2.6325,-2.6318,-2.6241,-2.6225,-2.6211,0,0,0,0,0,-2.6878,-2.6788,-2.6808,-2.6792,-2.6716,-2.6646,-2.6636,-2.6647,-2.669,-2.6647,-2.6637,-2.6667,-2.6518,-2.6567,-2.655,-2.6486,-2.6337,-2.6327,-2.6318,-2.6248,-2.6228,-2.6212,0,0,0,0,0,0,-2.6804,-2.6785,-2.6807,-2.6707,-2.6678,-2.6656,-2.6601,-2.6626,-2.6582,-2.659,-2.6604,-2.6595,-2.65,-2.6485,-2.6541,-2.6373,-2.6434,-2.6421,-2.6386,-2.6367,-2.6353,-2.6357,-2.6602,0,0,0,0,0,-2.6777,-2.6724,-2.671,-2.6623,-2.6608,-2.6607,-2.6577,-2.6589,-2.6558,-2.6545,-2.6528,-2.6494,-2.644,-2.6403,-2.6352,-2.6241,-2.6232,-2.6188,-2.6173,-2.6161,-2.6148,-2.6086,-2.6066,-2.6283,-2.6284,-2.6284,0,0,-2.6718,-2.6702,-2.6667,-2.6608,-2.6587,-2.6529,-2.6596,-2.6532,-2.6489,-2.6534,-2.6449,-2.6435,-2.6398,-2.6297,-2.6251,-2.6281,-2.6087,-2.6149,-2.614,-2.6134,-2.6074,-2.6054,-2.6035,-2.6277,-2.6278,-2.6279,0,0,-2.6583,-2.6567,-2.6492,-2.647,-2.6438,-2.6438,-2.642,-2.6395,-2.6388,-2.6304,-2.6336,-2.6283,-2.619,-2.6162,-2.6135,-2.599,-2.6015,-2.5973,-2.5893,-2.5833,-2.5815,-2.58,-2.5746,-2.5726,-2.5961,-2.5961,-2.5961,0,-2.6514,-2.6431,-2.645,-2.6384,-2.6356,-2.6398,-2.632,-2.6297,-2.6249,-2.6227,-2.6262,-2.6146,-2.6124,-2.6015,-2.598,-2.5958,-2.5936,-2.5976,-2.5817,-2.5802,-2.5788,-2.5736,-2.5716,-2.5956,-2.5957,-2.5957,-2.5958,0,-2.6347,-2.6289,-2.6232,-2.6187,-2.6153,-2.6081,-2.6087,-2.6049,-2.6064,-2.606,-2.5972,-2.5948,-2.5892,-2.5868,-2.5881,-2.5761,-2.578,-2.5816,-2.5876,-2.5762,-2.5713,-2.5693,-2.5949,-2.5951,-2.5952,-2.5953,0,0,-2.616,-2.6128,-2.6107,-2.6086,-2.6055,-2.6009,-2.5939,-2.5887,-2.5854,-2.5819,-2.5759,-2.5679,-2.5712,-2.5682,-2.5692,-2.5639,-2.5523,-2.5681,-2.5681,-2.565,-2.5386,-2.5357,-2.5334,-2.5541,-2.5537,-2.5535,-2.5388,0,-2.6021,-2.5902,-2.5917,-2.5802,-2.5747,-2.5787,-2.5725,-2.5698,-2.5692,-2.5643,-2.5636,-2.5578,-2.5628,-2.561,-2.5559,-2.5548,-2.5469,-2.5559,-2.5481,-2.5478,-2.5486,-2.5309,-2.5278,-2.5141,-2.537,-2.5366,-2.5364,0,-2.5843,-2.5805,-2.5685,-2.5661,-2.5639,-2.5584,-2.5537,-2.5491,-2.546,-2.5459,-2.5426,-2.5446,-2.5373,-2.5438,-2.5335,-2.5396,-2.5365,-2.5354,-2.5349,-2.534,-2.5412,-2.5292,-2.5098,-2.5076,-2.5335,-2.5337,-2.5339,0,-2.5716,-2.5634,-2.5552,-2.5534,-2.5505,-2.5465,-2.545,-2.5423,-2.5391,-2.535,-2.5329,-2.5278,-2.525,-2.5209,-2.5214,-2.5261,-2.5108,-2.5174,-2.5103,-2.5102,-2.5066,-2.5067,-2.4862,-2.5051,-2.5052,-2.5052,-2.5052,0,-2.5558,-2.5482,-2.5494,-2.5443,-2.5359,-2.5376,-2.5291,-2.5281,-2.5257,-2.5202,-2.5233,-2.5181,-2.5192,-2.5138,-2.5141,-2.5054,-2.5042,-2.5037,-2.5038,-2.5032,-2.5032,-2.501,-2.5018,-2.5047,-2.5048,-2.5049,-2.505,0,-2.54,-2.5406,-2.5318,-2.5299,-2.5292,-2.523,-2.5213,-2.5163,-2.5161,-2.5091,-2.5076,-2.5071,-2.501,-2.5012,-2.4942,-2.4944,-2.4836,-2.485,-2.4847,-2.4849,-2.4776,-2.4782,-2.4546,-2.4515,-2.4728,-2.4726,-2.4724,0,-2.5297,-2.524,-2.5215,-2.5183,-2.5166,-2.5113,-2.5081,-2.5096,-2.506,-2.5021,-2.4975,-2.4918,-2.4873,-2.4773,-2.4761,-2.4707,-2.4718,-2.4639,-2.4709,-2.4705,-2.4713,-2.4715,-2.4708,-2.4624,-2.4621,-2.4619,-2.4618,0,-2.5113,-2.5119,-2.5073,-2.5028,-2.499,-2.4954,-2.4922,-2.4893,-2.4904,-2.4862,-2.4802,-2.4767,-2.4697,-2.4638,-2.4587,-2.4569,-2.4593,-2.4597,-2.4577,-2.4568,-2.4568,-2.4564,-2.4806,-2.4601,-2.4603,-2.4604,-2.4605,-2.4605,-2.4977,-2.4928,-2.4903,-2.4851,-2.4829,-2.4798,-2.475,-2.4743,-2.4694,-2.464,-2.4652,-2.4583,-2.4552,-2.4486,-2.4463,-2.4408,-2.4435,-2.4407,-2.4399,-2.4391,-2.4382,-2.458,-2.4399,-2.4399,-2.44,-2.44,-2.4401,0,-2.4792,-2.4779,-2.4731,-2.4686,-2.4644,-2.4676,-2.4641,-2.4603,-2.4544,-2.4514,-2.447,-2.4399,-2.4343,-2.4328,-2.4273,-2.4231,-2.4241,-2.4216,-2.4217,-2.4212,-2.4362,-2.4383,-2.4209,-2.4209,-2.4209,-2.4209,-2.4209,-2.4209,-2.4691,-2.4609,-2.4612,-2.4518,-2.4504,-2.444,-2.4417,-2.4388,-2.4364,-2.4285,-2.424,-2.4232,-2.4207,-2.4151,-2.4099,-2.4096,-2.4073,-2.4042,-2.4043,-2.4183,-2.4202,-2.422,-2.424,-2.4038,-2.4038,-2.3897,-2.3896,-2.3895]}]]